Regional Weather Roundup
Issued by NWS

Home | Current Version | Previous Version | Graphics & Text | Print | Product List | Glossary On
Versions: 1 2 3 4 5 6 7 8 9 10 11 12 13 14 15 16 17 18 19 20 21 22 23 24 25 26 27 28 29 30 31 32 33 34 35 36 37 38 39 40 41 42 43 44 45 46 47 48 49 50
000
ASUS43 KBIS 240820
RWRND

NORTH DAKOTA REGIONAL WEATHER ROUNDUP
NATIONAL WEATHER SERVICE BISMARCK ND
200 AM CST MON NOV 24 2014

NOTE: "FAIR" INDICATES FEW OR NO CLOUDS BELOW 12,000 FEET WITH NO
SIGNIFICANT WEATHER AND/OR OBSTRUCTIONS TO VISIBILITY.


NDZ001>003-009>011-017-240900-
NORTHWEST NORTH DAKOTA

CITY           SKY/WX    TMP DP  RH WIND       PRES   REMARKS
WILLISTON      PTCLDY     8   4  83 N7        29.82S WCI  -3
MINOT          CLEAR      7   2  80 NW17      29.77R WCI -12
MINOT AFB      CLEAR      7   3  84 NW15      29.78R WCI -10
$$

NDZ018>021-031>035-040>046-240900-
SOUTHWEST NORTH DAKOTA

CITY           SKY/WX    TMP DP  RH WIND       PRES   REMARKS
BISMARCK       CLOUDY    17  12  80 N14G23    29.75R WCI   3
DICKINSON      PTCLDY    14  10  84 NW13      29.74S WCI   0
GARRISON         N/A      8   5  87 N13       29.75S WCI  -8
HETTINGER ARPT MOCLDY    16  13  88 NW18      29.74S WCI   0
$$

NDZ004>008-012>016-024-026-027-054-240900-
NORTHEAST NORTH DAKOTA

CITY           SKY/WX    TMP DP  RH WIND       PRES   REMARKS
GRAND FORKS    FLURRIES  14   9  80 N22G33    29.61R WCI  -4
GRND FRKS AFB  FLURRIES  12   9  85 N18G28    29.62R WCI  -5
DEVILS LAKE    CLOUDY    10  -2  56 N22G28    29.65R WCI  -9
$$

NDZ022-023-025-028>030-036>039-047>053-240900-
SOUTHEAST NORTH DAKOTA

CITY           SKY/WX    TMP DP  RH WIND       PRES   REMARKS
FARGO          LGT SNOW  16  12  84 NW20      29.58S FOG     WCI  -1
JAMESTOWN      CLOUDY    14   7  73 NW23G30   29.62S WCI  -5
$$




USA.gov is the U.S. government's official web portal to all federal, state and local government web resources and services.